NOAA 16 DEB

Satellite information

Favourite Embed

Satellite Type and Status

DEBRISIN ORBIT

Key statistics

Satellite NOAA 16 DEB at a glance.

Uptime

9160

Days in orbit

Revolutions

≈ 14.1

Per day

Orbit

SSO

Sun Synchronous Orbit

Inclination

98.8

Latest

Satellite identification and parameters

Extended collection of information and parameters for NOAA 16 DEB.

Object identification

Identified? True

Debris? True

Object name: NOAA 16 DEB

International designator: 2000-055RF

Object number (NORAD): 42363

Object ID (CCSDS): 42363

Country: UNITED STATES OF AMERICA (US)

Current information (Y/N): Y

RCS size: SMALL

Orbital parameters

Period: 101.959 minutes

Inclination: 98.7943 deg

SMA: 7229.529 km

Apoapsis: 897.683 km

Periapsis: 805.106 km

RAAN: 292.1583 deg

Eccentricy: 0.0064027

Argument of periapsis: 358.7208 deg

Mean anomaly: 1.379 deg

Mean motion: 14.12334984 rev/day

Mean motion (dot): 0.00006358 rev/day2

B* drag term: 0.0034064617 1/REarth

Two-line elements (TLE)

Creation date: Oct. 18, 2025, 10:30 a.m.

Reference frame: TEME

Reference center: EARTH

Epoch: Oct. 18, 2025, 5:48 a.m. UTC

TLE line 0: 0 NOAA 16 DEB

TLE line 1: 1 42363U 00055RF 25291.24235929 .00006358 00000-0 34065-2 0 9995

TLE line 2: 2 42363 98.7943 292.1583 0064027 358.7208 1.3790 14.12334984494244

Live tracking on map

Real-time ground track for satellite NOAA 16 DEB.

In-orbit conjunctions

A list of the most updated potential collisions computed for object NOAA 16 DEB.

Target Orbit TCA Probability of collision Miss distance Type
FENGYUN 1C DEB SSO 2025-09-03 18:50:45 0.0001068209 461.0 (m) DEBRIS
CZ-6A DEB LEO 2025-06-29 10:49:58 0.0001180061 178.0 (m) DEBRIS
GGSE 5 LEO 2025-02-16 09:00:45 0.000700064 402.0 (m) PAYLOAD

Associated space launch

The NOAA K, L and M POES satellites begin the fifth generation of improved environmental monitoring in support of NOAA missions. The instrument payload has significant improvements and additions/deletions. The instrument changes have effected the spacecraft subsystems and data formats.

NOAA 16 DEB was lifted into orbit during the mission ‘Titan II SLV | NOAA 16’, on board a Titan II SLV space rocket.

The launch took place on Sept. 21, 2000, 10:22 a.m. from Space Launch Complex 4W.

For more information about the launch, click the button.

Launch to space Titan II SLV | NOAA 16
Titan II SLV | NOAA 16

Agency: N/A

Status: Launch Successful

Launch date: Sept. 21, 2000, 10:22 a.m. UTC

Rocket: Titan II SLV

Launch pad: Space Launch Complex 4W

Location: Vandenberg SFB, CA, USA

...

Latest news about this satellite

There are no fresh news available about this satellite. Check back as we update our databases every day.


Newsletter sign-up

Weekly statistics, charts and insights to help you stay on top of the space industry.